Regional Weather Roundup
Issued by NWS

Home | Current Version | Previous Version | Text Only | Print | Product List | Glossary Off
Versions: 1 2 3 4 5 6 7 8 9 10 11 12 13 14 15 16 17 18 19 20 21 22 23 24 25 26 27 28 29 30 31 32 33 34 35 36 37 38 39 40 41 42 43 44 45 46 47 48 49 50

994
ASUS45 KPSR 040810
RWRAZ

ARIZONA HOURLY REGIONAL WEATHER ROUNDUP
NATIONAL WEATHER SERVICE PHOENIX AZ
100 AM MST SUN DEC 04 2016

NOTE: FAIR INDICATES FEW OR NO CLOUDS BELOW 12,000 FEET WITH NO
SIGNIFICANT WEATHER AND/OR OBSTRUCTIONS TO VISIBILITY.

AZZ001>003-036-040900-
NORTHWEST ARIZONA

CITY           SKY/WX    TMP DP  RH WIND       PRES   REMARKS
BULLHEAD CITY  CLEAR     57  16  19 N13       30.13S
KINGMAN        CLEAR     37   9  31 NE8       30.16S WCI  31
$$

AZZ004>008-015-016-018-040900-
NORTH CENTRAL ARIZONA

CITY           SKY/WX    TMP DP  RH WIND       PRES   REMARKS
GRAND CANYON   CLEAR     11   8  88 NE5       30.18S WCI   3
PRESCOTT       CLEAR     26  15  63 SW5       30.12F WCI  20
FLAGSTAFF      CLEAR     29   6  38 E17G25    30.13R WCI  17
PAYSON         CLEAR     43   7  22 E7G13     30.11S
PAGE           CLEAR     31   9  39 SE3       30.20S
$$

AZZ009>014-017-040900-
NORTHEAST ARIZONA

CITY           SKY/WX    TMP DP  RH WIND       PRES   REMARKS
WINSLOW        CLEAR     19   8  62 CALM      30.19R
SAINT JOHNS    CLEAR     23  16  74 CALM      30.13R
WINDOW ROCK    CLEAR     18  12  77 CALM      30.14R
SHOW LOW       LGT RAIN  19  12  73 NE5       30.13F WCI  13
$$

AZZ023-040900-
GREATER PHOENIX AREA

CITY           SKY/WX    TMP DP  RH WIND       PRES   REMARKS
PHOENIX        CLEAR     52  26  36 NW5       30.02R
BUCKEYE        CLEAR     50  19  29 N13       30.04S
LUKE AFB       CLEAR     47  26  44 NW7       30.02R
DEER VALLEY    CLEAR     51  17  26 N6        30.03R
SCOTTSDALE     CLEAR     57  16  20 N8        30.03R
MESA-GATEWAY   CLEAR     52  23  32 NE6       30.03R
$$

AZZ027-028-040900-
SOUTHWEST MARICOPA COUNTY AND PINAL COUNTY

CITY           SKY/WX    TMP DP  RH WIND       PRES   REMARKS
CASA GRANDE    NOT AVBL
$$

AZZ503-504-507>509-040900-
SOUTHEAST ARIZONA

CITY           SKY/WX    TMP DP  RH WIND       PRES   REMARKS
TUCSON         CLEAR     45  24  43 CALM      30.03R
DAVIS-MONTHAN  CLEAR     40  25  54 S7        30.01S
NOGALES        CLEAR     40  28  62 N9        30.00F WCI  34
SIERRA VISTA   CLEAR     38  33  85 CALM      30.03S
DOUGLAS        CLEAR     36  35  96 N7        30.02S WCI  30
SAFFORD        CLEAR     36  33  89 CALM      30.02R
$$

AZZ020-021-025-026-031-040900-
SOUTHWEST ARIZONA

CITY           SKY/WX    TMP DP  RH WIND       PRES   REMARKS
YUMA           CLEAR     57   6  13 NW9       30.05S
$$

CAZ031-033-041-043-047-048-061-040900-
SOUTHERN CALIFORNIA

CITY           SKY/WX    TMP DP  RH WIND       PRES   REMARKS
DOWNTOWN L.A.  CLEAR     49  32  52 CALM      30.05F
L.A. AIRPORT   CLEAR     54  29  38 E5        30.06F
SAN DIEGO      CLEAR     52  30  43 CALM      30.08S
BURBANK        CLEAR     50  23  34 CALM      30.06F
ONTARIO        CLEAR     50  22  33 CALM      30.07R
RIVERSIDE      CLEAR     56  22  26 SE5       30.07S
PALM SPRINGS   CLEAR     58  21  24 SW3       30.09S
EL CENTRO NAS  CLEAR     47   7  19 SW7       30.09R
IMPERIAL       CLEAR     46  17  31 W8        30.06S
BLYTHE         CLEAR     56  10  16 N13       30.08S
NEEDLES        CLEAR     54  13  19 NW6       30.13R
$$

NVZ020-UTZ003-040900-
SOUTHERN NEVADA-UTAH

CITY           SKY/WX    TMP DP  RH WIND       PRES   REMARKS
LAS VEGAS      CLEAR     44  12  27 SW3       30.19S
SALT LAKE CITY CLEAR     30  19  63 SE12      30.25F WCI  20
$$

NMZ009-TXZ055-040900-
NEW MEXICO-WEST TEXAS

CITY           SKY/WX    TMP DP  RH WIND       PRES   REMARKS
ALBUQUERQUE    CLOUDY    31  18  58 E3        30.11R
EL PASO        CLOUDY    44  38  79 S5        30.00R
$$


........................KEY........................
SKY/WX - SKY CONDITION/WEATHER
TMP    - TEMPERATURE IN FAHRENHEIT
DP     - DEW POINT IN FAHRENHEIT
RH     - RELATIVE HUMIDITY IN PERCENT
WIND   - DIRECTION AND SPEED IN MILES PER HOUR (MPH)
VRB    - VARIABLE WIND DIRECTION
PRES   - MEAN SEA LEVEL PRESSURE IN INCHES OF MERCURY
         F - FALLING PRESSURE   R - RISING PRESSURE
         S - STEADY PRESSURE
VSB    - VISIBILITY IN MILES
HX     - HEAT INDEX IN FAHRENHEIT
WCI    - WIND CHILL INDEX IN FAHRENHEIT
TC     - TEMPERATURE IN CELSIUS WHICH IS ALSO KNOWN AS
         TEMPERATURE IN CENTIGRADE
AFB    - AIR FORCE BASE
         LUKE AFB IS LUKE AIR FORCE BASE
         DAVIS-MONTHAN IS DAVIS-MONTHAN AIR FORCE BASE
NAS    - NAVAL AIR STATION
         EL CENTRO NAS IS EL CENTRO NAVAL AIR STATION
N/A    - NOT AVAILABLE





USA.gov is the U.S. government's official web portal to all federal, state and local government web resources and services.